[[{"header":{"parameterUnit":"m.s-1","parameterCategory":2,"la1":30.2991,"la2":30.254,"lo1":-89.0895,"lo2":-89.0444,"dy":0.0017,"dx":0.0017,"nx":28,"ny":28,"refTime":"2024-07-05T21:00:00:Z","depth":"0","parameterNumber":2,"parameterNumberName":"U-component_of_CURRENTS"},"data":[0,0,0,0,0,0,0,0,0,0,0,0,0,0,0,0,0,0,0,0,0,0,0,0,0,0,0,0,0,0,0,0,0,0,0,0,0,0,0,0,0,0,0,0,0,0,0,0,0,0,0,0,0,0,0,0,0,0,-0.4067,-0.4067,0,-0.4058,-0.4057,-0.4057,-0.3945,-0.3943,-0.3941,-0.3939,-0.3767,-0.3765,-0.3763,0,0,0,0,0,0,0,0,0,0,0,0,0,-0.3834,-0.3839,-0.4067,-0.4067,-0.4068,-0.4058,-0.4057,-0.4056,-0.3946,-0.3943,-0.394,-0.3938,-0.3768,-0.3765,-0.3762,0,0,0,0,0,0,0,0,0,0,0,0,0,-0.3886,-0.3841,-0.4067,-0.4016,-0.4011,-0.4058,-0.4057,-0.4056,-0.3946,-0.3943,-0.3939,-0.3936,-0.3769,-0.3766,-0.3762,-0.3807,0,0,-0.3751,-0.3749,0,0,0,0,0,0,0,0,-0.3883,-0.3894,-0.4023,-0.4019,-0.4015,-0.4005,-0.3912,-0.3967,-0.3947,-0.3965,-0.3939,-0.3935,-0.3838,-0.3829,-0.3828,-0.3799,-0.3791,-0.375,-0.3748,-0.3746,-0.3745,0,0,0,0,0,0,0,-0.388,-0.3893,-0.4057,-0.4024,-0.4019,-0.3941,-0.3945,-0.3922,-0.3913,-0.3963,-0.3956,-0.3966,-0.3833,-0.3832,-0.3823,-0.3789,-0.375,-0.3747,-0.3745,-0.3743,-0.3777,-0.378,0,0,0,0,0,0,-0.3907,-0.3891,-0.4057,-0.4057,-0.3946,-0.3949,-0.3953,-0.4006,-0.3916,-0.3902,-0.3969,-0.3961,-0.384,-0.3827,-0.3816,-0.3828,-0.3746,-0.3743,-0.3741,-0.3774,-0.3778,-0.3781,0,0,0,0,0,0,-0.3902,-0.3924,-0.4058,-0.3975,-0.3987,-0.3958,-0.4017,-0.4008,-0.3986,-0.3924,-0.3905,-0.3955,-0.3837,-0.3821,-0.3792,-0.3821,-0.3741,-0.3738,-0.377,-0.3775,-0.3779,-0.3873,0,0,0,0,0,0,-0.3897,-0.3923,-0.3957,-0.3979,-0.3993,-0.4101,-0.4021,-0.401,-0.4002,-0.3991,-0.3907,-0.3888,-0.3833,-0.3798,-0.3789,-0.3814,-0.3735,-0.3766,-0.3772,-0.3778,-0.3866,-0.388,-0.3892,0,0,0,0,0,-0.3889,-0.3954,-0.396,-0.3979,-0.4048,-0.4104,-0.4104,-0.4064,-0.4005,-0.4024,-0.3954,-0.389,-0.3829,-0.3798,-0.3785,-0.381,-0.3763,-0.3771,-0.3777,-0.386,-0.3877,-0.3892,0,0,0,0,0,0,-0.3846,-0.3951,-0.3957,-0.4044,-0.408,-0.4087,-0.4097,-0.407,-0.4033,-0.4005,-0.3917,-0.3898,-0.3898,-0.3852,-0.3819,-0.3846,-0.3792,-0.3797,-0.3859,-0.3874,-0.3887,-0.3851,-0.3732,0,0,0,0,0,-0.3868,-0.3948,-0.4018,-0.4076,-0.4107,-0.4101,-0.4109,-0.4097,-0.4076,-0.4054,-0.3994,-0.3943,-0.3928,-0.3893,-0.3882,-0.3878,-0.3823,-0.3895,-0.3908,-0.3919,-0.3888,-0.3845,-0.385,-0.3804,-0.3804,-0.3804,0,0,-0.3858,-0.3927,-0.3965,-0.4072,-0.4089,-0.4134,-0.4095,-0.4131,-0.4141,-0.4044,-0.4019,-0.3995,-0.3946,-0.3954,-0.3948,-0.3902,-0.3917,-0.3928,-0.3937,-0.3899,-0.3853,-0.3856,-0.3859,-0.3809,-0.3808,-0.3807,0,0,-0.3839,-0.3956,-0.3987,-0.4054,-0.4116,-0.4153,-0.4168,-0.4192,-0.4181,-0.4188,-0.4124,-0.4101,-0.4072,-0.4033,-0.4012,-0.4092,-0.4008,-0.411,-0.4112,-0.4074,-0.4075,-0.4076,-0.4054,-0.4052,-0.4091,-0.4091,-0.4092,0,-0.3784,-0.3894,-0.3996,-0.4042,-0.4105,-0.4163,-0.4203,-0.4226,-0.4223,-0.4207,-0.4193,-0.4136,-0.4106,-0.4076,-0.4111,-0.4114,-0.4082,-0.4049,-0.4085,-0.4084,-0.4083,-0.406,-0.4056,-0.4097,-0.4096,-0.4096,-0.4095,0,-0.3792,-0.3884,-0.392,-0.4025,-0.4103,-0.4176,-0.4257,-0.4293,-0.4301,-0.4284,-0.4275,-0.4242,-0.4189,-0.4208,-0.4176,-0.4164,-0.4145,-0.4124,-0.4031,-0.4092,-0.4066,-0.406,-0.4104,-0.4102,-0.4101,-0.41,0,0,-0.3625,-0.3872,-0.3881,-0.3965,-0.4127,-0.42,-0.4265,-0.4334,-0.4328,-0.4338,-0.4302,-0.4306,-0.4264,-0.4238,-0.4209,-0.4166,-0.4165,-0.4139,-0.4134,-0.4092,-0.4087,-0.3759,-0.372,-0.4143,-0.4142,-0.4141,-0.4086,0,-0.3573,-0.3728,-0.3847,-0.3978,-0.4086,-0.4214,-0.4269,-0.4333,-0.4359,-0.4345,-0.4318,-0.4288,-0.4286,-0.4261,-0.4228,-0.418,-0.4147,-0.4182,-0.4053,-0.4049,-0.3727,-0.37,-0.35,-0.3403,-0.408,-0.4078,-0.4078,0,-0.349,-0.366,-0.3816,-0.4037,-0.4082,-0.4152,-0.4299,-0.4346,-0.4355,-0.4351,-0.4313,-0.4284,-0.4245,-0.4236,-0.416,-0.4182,-0.4141,-0.41,-0.4096,-0.3732,-0.3704,-0.3446,-0.3366,-0.3362,-0.4067,-0.4068,-0.4069,0,-0.339,-0.3598,-0.3767,-0.3857,-0.4111,-0.4168,-0.4264,-0.4324,-0.4344,-0.4338,-0.4315,-0.427,-0.4236,-0.4187,-0.4096,-0.4145,-0.3975,-0.4039,-0.3707,-0.3688,-0.3452,-0.3408,-0.3311,-0.3969,-0.397,-0.397,-0.397,0,-0.3319,-0.3428,-0.3743,-0.3863,-0.3996,-0.4153,-0.4212,-0.4277,-0.4305,-0.4287,-0.43,-0.4241,-0.4217,-0.4116,-0.4072,-0.3811,-0.3958,-0.3663,-0.3617,-0.3483,-0.3444,-0.3372,-0.3444,-0.3968,-0.3968,-0.3969,-0.3969,0,-0.317,-0.3374,-0.3589,-0.3903,-0.3966,-0.4069,-0.4207,-0.4238,-0.4268,-0.4246,-0.4245,-0.4212,-0.4049,-0.3959,-0.3841,-0.3723,-0.3452,-0.3434,-0.3262,-0.3188,-0.2829,-0.2913,-0.2707,-0.264,-0.3078,-0.3069,-0.3062,0,-0.3109,-0.323,-0.3616,-0.3734,-0.3874,-0.4023,-0.4101,-0.4201,-0.4237,-0.4197,-0.4187,-0.402,-0.3788,-0.3449,-0.3244,-0.3007,-0.3106,-0.2703,-0.2722,-0.2706,-0.2776,-0.2877,-0.285,-0.2523,-0.2511,-0.2502,-0.2495,0,-0.3036,-0.3196,-0.3433,-0.3679,-0.3824,-0.3925,-0.405,-0.4041,-0.412,-0.4035,-0.383,-0.3601,-0.3274,-0.2813,-0.2499,-0.2414,-0.2597,-0.2493,-0.2547,-0.233,-0.237,-0.2316,-0.2713,-0.2411,-0.242,-0.2426,-0.243,-0.2434,-0.2965,-0.3107,-0.341,-0.3592,-0.3735,-0.3741,-0.3635,-0.3723,-0.3605,-0.3277,-0.3319,-0.2726,-0.2381,-0.1842,-0.1844,-0.1706,-0.1932,-0.167,-0.1787,-0.1903,-0.1753,-0.1906,-0.148,-0.1482,-0.1485,-0.1487,-0.1489,0,-0.2857,-0.3047,-0.3265,-0.3461,-0.3476,-0.3574,-0.3519,-0.3275,-0.2957,-0.269,-0.228,-0.1512,-0.1163,-0.109,-0.1038,-0.1042,-0.1183,-0.1097,-0.1315,-0.1333,-0.1512,-0.1395,-0.084,-0.084,-0.084,-0.084,-0.084,-0.084,-0.2814,-0.2972,-0.3101,-0.3107,-0.3174,-0.2888,-0.2704,-0.2386,-0.2059,-0.1313,-0.0757,-0.0423,-0.0422,-0.0616,-0.0806,-0.0846,-0.0985,-0.0873,-0.103,-0.1291,-0.1361,-0.1428,-0.1334,-0.0774,-0.0775,-0.0794,-0.0795,-0.0795]},{"header":{"parameterUnit":"m.s-1","parameterCategory":2,"la1":30.2991,"la2":30.254,"lo1":-89.0895,"lo2":-89.0444,"dy":0.0017,"dx":0.0017,"nx":28,"ny":28,"refTime":"2024-07-05T21:00:00:Z","depth":"0","parameterNumber":3,"parameterNumberName":"V-component_of_CURRENTS"},"data":[0,0,0,0,0,0,0,0,0,0,0,0,0,0,0,0,0,0,0,0,0,0,0,0,0,0,0,0,0,0,0,0,0,0,0,0,0,0,0,0,0,0,0,0,0,0,0,0,0,0,0,0,0,0,0,0,0,0,-0.0908,-0.0909,0,-0.09,-0.0899,-0.0898,-0.0795,-0.0793,-0.0791,-0.0789,-0.0628,-0.0626,-0.0624,0,0,0,0,0,0,0,0,0,0,0,0,0,-0.0883,-0.0884,-0.0908,-0.0909,-0.0909,-0.09,-0.0899,-0.0898,-0.0795,-0.0793,-0.079,-0.0788,-0.0629,-0.0626,-0.0624,0,0,0,0,0,0,0,0,0,0,0,0,0,-0.0881,-0.0884,-0.0908,-0.0861,-0.0857,-0.09,-0.0899,-0.0898,-0.0796,-0.0793,-0.079,-0.0787,-0.063,-0.0627,-0.0623,-0.0665,0,0,-0.0613,-0.0611,0,0,0,0,0,0,0,0,-0.0881,-0.0881,-0.0867,-0.0864,-0.086,-0.085,-0.0832,-0.0815,-0.0797,-0.0813,-0.0789,-0.0785,-0.0694,-0.0686,-0.0685,-0.0657,-0.0651,-0.0612,-0.061,-0.0609,-0.0608,0,0,0,0,0,0,0,-0.0881,-0.0882,-0.0899,-0.0868,-0.0864,-0.0857,-0.0852,-0.0828,-0.0764,-0.0811,-0.0805,-0.0814,-0.069,-0.0689,-0.068,-0.0648,-0.0612,-0.0609,-0.0607,-0.0606,-0.0617,-0.062,0,0,0,0,0,0,-0.0895,-0.0882,-0.09,-0.0899,-0.0869,-0.086,-0.0854,-0.0852,-0.0768,-0.0755,-0.0817,-0.081,-0.0696,-0.0684,-0.0674,-0.0712,-0.0609,-0.0606,-0.0604,-0.0615,-0.0618,-0.062,0,0,0,0,0,0,-0.0894,-0.0896,-0.09,-0.0895,-0.0896,-0.0864,-0.0862,-0.0853,-0.0845,-0.0775,-0.0757,-0.0817,-0.0693,-0.0679,-0.0662,-0.0705,-0.0604,-0.0601,-0.0612,-0.0616,-0.0619,-0.0792,0,0,0,0,0,0,-0.0893,-0.0896,-0.0902,-0.0896,-0.0897,-0.0943,-0.0865,-0.0856,-0.0859,-0.0849,-0.077,-0.0752,-0.069,-0.0668,-0.0659,-0.0698,-0.0598,-0.0609,-0.0614,-0.0618,-0.0783,-0.0801,-0.0816,0,0,0,0,0,-0.0892,-0.0924,-0.0902,-0.0905,-0.0905,-0.0946,-0.0946,-0.0908,-0.0862,-0.0883,-0.0823,-0.0754,-0.0689,-0.0668,-0.0656,-0.0696,-0.0607,-0.0612,-0.0618,-0.0776,-0.0798,-0.0816,0,0,0,0,0,0,-0.0921,-0.0917,-0.0892,-0.092,-0.0938,-0.093,-0.0948,-0.0924,-0.0898,-0.0875,-0.0789,-0.077,-0.0767,-0.0716,-0.0695,-0.0712,-0.0636,-0.0639,-0.076,-0.078,-0.0796,-0.0849,-0.0595,0,0,0,0,0,-0.0933,-0.0947,-0.0951,-0.0976,-0.0984,-0.0967,-0.0977,-0.096,-0.0939,-0.0923,-0.0866,-0.0812,-0.0787,-0.077,-0.0733,-0.0753,-0.0694,-0.0769,-0.0786,-0.08,-0.0837,-0.0832,-0.0851,-0.0638,-0.0638,-0.0638,0,0,-0.0955,-0.0953,-0.0962,-0.0983,-0.0982,-0.1043,-0.0963,-0.0995,-0.1047,-0.0912,-0.0939,-0.0865,-0.0804,-0.0818,-0.0814,-0.0778,-0.0814,-0.0807,-0.082,-0.0849,-0.0839,-0.086,-0.0879,-0.0642,-0.0641,-0.064,0,0,-0.1035,-0.1001,-0.1053,-0.107,-0.1092,-0.1098,-0.1115,-0.1113,-0.1105,-0.1135,-0.1044,-0.1009,-0.097,-0.0939,-0.0919,-0.1013,-0.0899,-0.0986,-0.1118,-0.1112,-0.113,-0.1146,-0.1029,-0.1033,-0.0999,-0.0999,-0.0999,0,-0.1062,-0.1133,-0.1081,-0.1141,-0.1189,-0.1134,-0.1234,-0.123,-0.1223,-0.1228,-0.1164,-0.1111,-0.1041,-0.1076,-0.1097,-0.1053,-0.0993,-0.1046,-0.1136,-0.115,-0.1163,-0.104,-0.1042,-0.1008,-0.1007,-0.1006,-0.1005,0,-0.1195,-0.1249,-0.1285,-0.1345,-0.138,-0.1458,-0.1459,-0.148,-0.1454,-0.1427,-0.1432,-0.1342,-0.1309,-0.1278,-0.1216,-0.1274,-0.1176,-0.1153,-0.109,-0.1195,-0.1057,-0.1056,-0.1021,-0.1018,-0.1015,-0.1013,0,0,-0.1272,-0.1372,-0.1385,-0.1467,-0.1507,-0.1568,-0.1641,-0.1708,-0.1735,-0.1695,-0.1733,-0.1683,-0.1584,-0.1559,-0.1464,-0.1456,-0.1451,-0.1356,-0.1351,-0.1245,-0.1361,-0.1103,-0.1074,-0.145,-0.1452,-0.1455,-0.1203,0,-0.1413,-0.1616,-0.1603,-0.1789,-0.1907,-0.187,-0.1944,-0.1962,-0.1923,-0.1919,-0.1834,-0.1808,-0.1707,-0.1672,-0.166,-0.1506,-0.1469,-0.1516,-0.1271,-0.1262,-0.1027,-0.1074,-0.0948,-0.07,-0.1201,-0.12,-0.12,0,-0.156,-0.169,-0.1927,-0.2057,-0.2094,-0.2171,-0.2264,-0.2306,-0.225,-0.22,-0.2147,-0.2028,-0.199,-0.1888,-0.1731,-0.1764,-0.1594,-0.1467,-0.1454,-0.1166,-0.1005,-0.0689,-0.0678,-0.0523,-0.1197,-0.1197,-0.1198,0,-0.1722,-0.1904,-0.2127,-0.2176,-0.2306,-0.2379,-0.2423,-0.2396,-0.24,-0.2354,-0.2306,-0.2238,-0.2157,-0.2031,-0.1711,-0.1749,-0.1477,-0.1492,-0.1092,-0.1066,-0.0888,-0.0842,-0.0712,-0.1404,-0.1405,-0.1405,-0.1406,0,-0.19,-0.2056,-0.2221,-0.234,-0.2538,-0.254,-0.2651,-0.2653,-0.2595,-0.2525,-0.2446,-0.2339,-0.2198,-0.1977,-0.1758,-0.1363,-0.1504,-0.1115,-0.1011,-0.093,-0.0894,-0.069,-0.0664,-0.1396,-0.1398,-0.14,-0.1401,0,-0.203,-0.215,-0.2397,-0.2584,-0.2626,-0.2759,-0.2782,-0.2807,-0.2745,-0.2649,-0.2632,-0.2433,-0.2119,-0.1869,-0.1565,-0.1356,-0.0889,-0.0863,-0.0703,-0.0587,-0.0128,-0.0116,0.0133,0.0269,-0.0459,-0.0451,-0.0445,0,-0.2118,-0.2278,-0.2564,-0.2681,-0.2763,-0.2902,-0.2945,-0.2906,-0.2833,-0.2622,-0.2535,-0.2261,-0.1884,-0.1337,-0.0997,-0.0559,-0.0502,-0.0203,-0.0289,-0.0075,0.0011,-0.0015,0.0074,-0.0087,-0.0079,-0.0072,-0.0066,0,-0.2267,-0.2385,-0.2593,-0.2834,-0.2949,-0.3005,-0.3004,-0.2928,-0.276,-0.2551,-0.2116,-0.181,-0.1335,-0.0764,-0.0293,-0.0069,-0.0069,-0.0038,0.0082,0.0232,0.0304,0.0479,-0.0207,-0.0002,-0.0009,-0.0013,-0.0017,-0.0019,-0.2345,-0.2516,-0.2762,-0.2962,-0.3059,-0.2955,-0.2795,-0.2637,-0.2328,-0.1718,-0.1597,-0.087,-0.0503,0.0197,0.0374,0.0702,0.0524,0.0781,0.0767,0.0714,0.0855,0.0388,0.0766,0.0764,0.0762,0.0761,0.0759,0,-0.241,-0.2595,-0.2823,-0.2972,-0.2954,-0.298,-0.2701,-0.2333,-0.1727,-0.118,-0.0557,0.0333,0.0803,0.1017,0.1321,0.1481,0.141,0.1507,0.1409,0.1451,0.0968,0.0995,0.1561,0.1561,0.1561,0.1561,0.156,0.156,-0.2434,-0.2684,-0.2804,-0.2793,-0.2793,-0.2422,-0.2115,-0.1545,-0.0986,0.0116,0.0866,0.1364,0.1572,0.1774,0.1981,0.199,0.207,0.2059,0.2091,0.1662,0.1588,0.1517,0.1548,0.222,0.2221,0.2573,0.2576,0.2578]}],[{"header":{"parameterUnit":"m.s-1","parameterCategory":2,"la1":30.2991,"la2":30.254,"lo1":-89.0895,"lo2":-89.0444,"dy":0.0017,"dx":0.0017,"nx":28,"ny":28,"refTime":"2024-07-05T21:00:00:Z","depth":"2","parameterNumber":2,"parameterNumberName":"U-component_of_CURRENTS"},"data":[0,0,0,0,0,0,0,0,0,0,0,0,0,0,0,0,0,0,0,0,0,0,0,0,0,0,0,0,0,0,0,0,0,0,0,0,0,0,0,0,0,0,0,0,0,0,0,0,0,0,0,0,0,0,0,0,0,0,-0.2397,-0.2397,0,-0.2337,-0.2336,-0.2334,-0.2323,-0.2324,-0.2326,-0.2327,-0.2552,-0.2557,-0.2561,0,0,0,0,0,0,0,0,0,0,0,0,0,-0.2387,-0.2387,-0.2397,-0.2397,-0.2398,-0.2337,-0.2336,-0.2334,-0.2323,-0.2324,-0.2326,-0.2327,-0.255,-0.2556,-0.2562,0,0,0,0,0,0,0,0,0,0,0,0,0,-0.2357,-0.2387,-0.2397,-0.2392,-0.2391,-0.2338,-0.2336,-0.2333,-0.2322,-0.2324,-0.2326,-0.2328,-0.2549,-0.2555,-0.2562,-0.2566,0,0,-0.2584,-0.2587,0,0,0,0,0,0,0,0,-0.2359,-0.2356,-0.2392,-0.2392,-0.2392,-0.2348,-0.2415,-0.2429,-0.2322,-0.2338,-0.2327,-0.2329,-0.2515,-0.2525,-0.2491,-0.2576,-0.2586,-0.2585,-0.2589,-0.2592,-0.2594,0,0,0,0,0,0,0,-0.2361,-0.2358,-0.2364,-0.2392,-0.2392,-0.2353,-0.2351,-0.2415,-0.2414,-0.2337,-0.2339,-0.2346,-0.2516,-0.2484,-0.2498,-0.2589,-0.2585,-0.2591,-0.2595,-0.2598,-0.2681,-0.2679,0,0,0,0,0,0,-0.2391,-0.2361,-0.2366,-0.2363,-0.239,-0.2353,-0.235,-0.2352,-0.2407,-0.2418,-0.2345,-0.2346,-0.2471,-0.2489,-0.2506,-0.2529,-0.2592,-0.2599,-0.2603,-0.2683,-0.2681,-0.2678,0,0,0,0,0,0,-0.2391,-0.2392,-0.2369,-0.2368,-0.2364,-0.2353,-0.2354,-0.235,-0.2363,-0.2411,-0.2426,-0.2369,-0.2473,-0.2496,-0.2564,-0.2538,-0.2602,-0.2608,-0.2686,-0.2682,-0.2679,-0.2567,0,0,0,0,0,0,-0.2391,-0.2392,-0.2396,-0.237,-0.2366,-0.2362,-0.2353,-0.2348,-0.2367,-0.2369,-0.2437,-0.2456,-0.2477,-0.2553,-0.2571,-0.2549,-0.2614,-0.2688,-0.2684,-0.268,-0.2573,-0.256,-0.2549,0,0,0,0,0,-0.239,-0.2392,-0.2396,-0.2397,-0.2374,-0.2363,-0.2356,-0.2348,-0.2367,-0.2367,-0.2398,-0.2456,-0.254,-0.2558,-0.258,-0.2559,-0.269,-0.2685,-0.2681,-0.2579,-0.2563,-0.255,0,0,0,0,0,0,-0.2387,-0.2391,-0.2395,-0.2398,-0.2396,-0.2366,-0.236,-0.2372,-0.2387,-0.2397,-0.2453,-0.2472,-0.2487,-0.2555,-0.2573,-0.2565,-0.2617,-0.2616,-0.2531,-0.2518,-0.2506,-0.2554,-0.262,0,0,0,0,0,-0.239,-0.2389,-0.2395,-0.2393,-0.2399,-0.2389,-0.2386,-0.2383,-0.2396,-0.2403,-0.2444,-0.2478,-0.2472,-0.253,-0.2526,-0.2581,-0.2625,-0.2572,-0.256,-0.255,-0.2599,-0.2623,-0.2618,-0.2663,-0.2663,-0.2663,0,0,-0.2387,-0.2389,-0.2388,-0.2392,-0.2383,-0.2377,-0.239,-0.2389,-0.2382,-0.2433,-0.2443,-0.2431,-0.2465,-0.2455,-0.2476,-0.2534,-0.2543,-0.2544,-0.2535,-0.2592,-0.2618,-0.2614,-0.261,-0.266,-0.2661,-0.2661,0,0,-0.2366,-0.2386,-0.2375,-0.2381,-0.2386,-0.2378,-0.2398,-0.2387,-0.2386,-0.2396,-0.2381,-0.2383,-0.2429,-0.2416,-0.2425,-0.2375,-0.2442,-0.2362,-0.2398,-0.2417,-0.2414,-0.2413,-0.2396,-0.2395,-0.2403,-0.2402,-0.2402,0,-0.2363,-0.2355,-0.237,-0.2366,-0.2377,-0.2393,-0.2392,-0.2378,-0.2386,-0.2401,-0.2399,-0.2386,-0.2403,-0.2398,-0.2347,-0.2351,-0.2369,-0.2446,-0.2404,-0.2404,-0.2405,-0.2389,-0.2389,-0.2397,-0.2397,-0.2398,-0.2398,0,-0.2329,-0.2337,-0.2336,-0.2337,-0.2348,-0.235,-0.2358,-0.2364,-0.2374,-0.2368,-0.2359,-0.234,-0.2363,-0.232,-0.2326,-0.2321,-0.2325,-0.2345,-0.2446,-0.2394,-0.2379,-0.2381,-0.2388,-0.239,-0.2392,-0.2393,0,0,-0.2284,-0.2308,-0.2306,-0.2327,-0.2342,-0.2353,-0.2352,-0.2367,-0.2398,-0.2368,-0.2397,-0.2328,-0.2339,-0.2349,-0.233,-0.2353,-0.2314,-0.2367,-0.2371,-0.2361,-0.2336,-0.2175,-0.2162,-0.2331,-0.2332,-0.2333,-0.2298,0,-0.2254,-0.2251,-0.2271,-0.2287,-0.23,-0.2338,-0.2355,-0.2374,-0.2383,-0.2408,-0.2387,-0.2391,-0.2344,-0.2353,-0.2352,-0.2334,-0.2327,-0.2321,-0.2384,-0.2385,-0.2257,-0.2162,-0.1994,-0.1936,-0.2301,-0.2301,-0.2302,0,-0.2201,-0.2221,-0.2224,-0.2304,-0.2318,-0.233,-0.2396,-0.2414,-0.2449,-0.2467,-0.2473,-0.2465,-0.2465,-0.2433,-0.2412,-0.2415,-0.2373,-0.2352,-0.2351,-0.2265,-0.223,-0.206,-0.1927,-0.2306,-0.2306,-0.2305,-0.2305,0,-0.2152,-0.2193,-0.2204,-0.2222,-0.2298,-0.2326,-0.2374,-0.2426,-0.2458,-0.2515,-0.2536,-0.2546,-0.2528,-0.2524,-0.2426,-0.2453,-0.2382,-0.2422,-0.2227,-0.2215,-0.2122,-0.2098,-0.2402,-0.2402,-0.2402,-0.2402,-0.2402,0,-0.2107,-0.2123,-0.219,-0.22,-0.2255,-0.2324,-0.2384,-0.2436,-0.2504,-0.2515,-0.2567,-0.254,-0.2552,-0.2489,-0.2451,-0.2306,-0.2396,-0.2222,-0.2197,-0.2064,-0.2037,-0.2427,-0.243,-0.2401,-0.2401,-0.2401,-0.2401,0,-0.2035,-0.207,-0.2101,-0.219,-0.2222,-0.2263,-0.2377,-0.2415,-0.2503,-0.2511,-0.2532,-0.2538,-0.2459,-0.2411,-0.2361,-0.2288,-0.2216,-0.2128,-0.1938,-0.189,-0.2045,-0.2043,-0.1988,-0.1982,-0.1977,-0.1973,-0.197,0,-0.1997,-0.1995,-0.2072,-0.2091,-0.2126,-0.2207,-0.2253,-0.2382,-0.241,-0.2459,-0.2437,-0.2388,-0.2282,-0.2146,-0.2022,-0.1919,-0.2013,-0.1706,-0.1729,-0.2022,-0.2005,-0.201,-0.2015,-0.1544,-0.1537,-0.1532,-0.1527,0,-0.1928,-0.1941,-0.1967,-0.199,-0.2032,-0.2084,-0.2155,-0.217,-0.2276,-0.2316,-0.2258,-0.2196,-0.2019,-0.1805,-0.1647,-0.1575,-0.1732,-0.1589,-0.1953,-0.1657,-0.1595,-0.158,-0.1602,-0.1478,-0.1483,-0.1487,-0.1489,-0.1491,-0.187,-0.1856,-0.186,-0.1871,-0.1906,-0.1882,-0.1848,-0.1949,-0.1972,-0.1945,-0.2003,-0.1864,-0.1767,-0.1436,-0.1313,-0.1208,-0.135,-0.1321,-0.1342,-0.1368,-0.1305,-0.1236,-0.1039,-0.1041,-0.1043,-0.1045,-0.1046,0,-0.1773,-0.1744,-0.1741,-0.1699,-0.1624,-0.1711,-0.1712,-0.164,-0.1598,-0.167,-0.165,-0.139,-0.1236,-0.1136,-0.089,-0.0841,-0.0888,-0.0814,-0.0895,-0.094,-0.0982,-0.0906,-0.053,-0.0529,-0.0528,-0.0527,0,0,-0.172,-0.1647,-0.1617,-0.1413,-0.1366,-0.1214,-0.116,-0.1136,-0.1148,-0.1105,-0.1088,-0.1198,-0.1118,-0.086,-0.077,-0.061,-0.0787,-0.057,-0.0975,-0.1116,-0.1158,-0.1247,-0.1175,0,0,0,0,0]},{"header":{"parameterUnit":"m.s-1","parameterCategory":2,"la1":30.2991,"la2":30.254,"lo1":-89.0895,"lo2":-89.0444,"dy":0.0017,"dx":0.0017,"nx":28,"ny":28,"refTime":"2024-07-05T21:00:00:Z","depth":"2","parameterNumber":3,"parameterNumberName":"V-component_of_CURRENTS"},"data":[0,0,0,0,0,0,0,0,0,0,0,0,0,0,0,0,0,0,0,0,0,0,0,0,0,0,0,0,0,0,0,0,0,0,0,0,0,0,0,0,0,0,0,0,0,0,0,0,0,0,0,0,0,0,0,0,0,0,-0.0407,-0.0406,0,-0.0345,-0.0344,-0.0344,-0.0306,-0.0305,-0.0304,-0.0304,-0.0065,-0.0059,-0.0054,0,0,0,0,0,0,0,0,0,0,0,0,0,-0.0496,-0.0495,-0.0407,-0.0406,-0.0404,-0.0345,-0.0344,-0.0344,-0.0306,-0.0305,-0.0304,-0.0304,-0.0067,-0.006,-0.0053,0,0,0,0,0,0,0,0,0,0,0,0,0,-0.0453,-0.0495,-0.0407,-0.0375,-0.0371,-0.0345,-0.0344,-0.0344,-0.0306,-0.0305,-0.0304,-0.0303,-0.0069,-0.0061,-0.0052,-0.0019,0,0,-0.0026,-0.0022,0,0,0,0,0,0,0,0,-0.0455,-0.045,-0.0381,-0.0377,-0.0372,-0.0328,-0.0288,-0.0225,-0.0306,-0.0336,-0.0304,-0.0303,-0.0134,-0.012,-0.012,-0.0008,0.0002,-0.0025,-0.002,-0.0016,-0.0014,0,0,0,0,0,0,0,-0.0458,-0.0453,-0.0387,-0.0379,-0.0374,-0.0364,-0.0357,-0.0277,-0.0242,-0.0333,-0.0329,-0.0315,-0.0131,-0.0129,-0.0114,0.0006,-0.0025,-0.0018,-0.0012,-0.0009,0.0204,0.0204,0,0,0,0,0,0,-0.0457,-0.0455,-0.0389,-0.0385,-0.0406,-0.0363,-0.0355,-0.0347,-0.0246,-0.023,-0.0315,-0.0313,-0.0144,-0.0124,-0.0105,-0.0026,-0.0016,-0.0008,-0.0003,0.0204,0.0204,0.0205,0,0,0,0,0,0,-0.0459,-0.0452,-0.0392,-0.0414,-0.0405,-0.0362,-0.0353,-0.0346,-0.0331,-0.0234,-0.0215,-0.0305,-0.0142,-0.0117,-0.0028,-0.0017,-0.0004,0.0003,0.0203,0.0204,0.0204,0.0111,0,0,0,0,0,0,-0.0462,-0.0453,-0.046,-0.0415,-0.0404,-0.0366,-0.0353,-0.0346,-0.0322,-0.0318,-0.0218,-0.0197,-0.014,-0.0042,-0.002,-0.0005,0.001,0.0202,0.0203,0.0204,0.0113,0.0108,0.0104,0,0,0,0,0,-0.0466,-0.0471,-0.0461,-0.0454,-0.0411,-0.0365,-0.036,-0.0329,-0.0322,-0.0314,-0.0251,-0.0199,-0.002,-0.0035,-0.0009,0.0008,0.0202,0.0203,0.0204,0.0115,0.0109,0.0104,0,0,0,0,0,0,-0.0513,-0.0465,-0.0454,-0.0446,-0.0405,-0.0357,-0.0353,-0.0328,-0.0279,-0.0274,-0.0189,-0.0162,-0.0093,-0.0022,-0.004,0.0073,0.0099,0.0105,0.0023,0.0018,0.0013,0.0003,0.0017,0,0,0,0,0,-0.0528,-0.052,-0.0465,-0.046,-0.0442,-0.04,-0.0383,-0.0356,-0.0301,-0.0281,-0.021,-0.0133,-0.0072,-0.0011,0.0048,0.0129,0.0183,0.0157,0.0152,0.0147,0.0157,0.0223,0.0224,0.0208,0.0208,0.0208,0,0,-0.0546,-0.0518,-0.0515,-0.047,-0.0444,-0.0415,-0.0388,-0.0358,-0.033,-0.0257,-0.0201,-0.0152,-0.0061,0.0004,0.0046,0.0074,0.0181,0.0149,0.0144,0.0157,0.0224,0.0225,0.0227,0.0209,0.0209,0.0209,0,0,-0.0565,-0.0552,-0.0547,-0.0514,-0.0465,-0.0433,-0.042,-0.0364,-0.0337,-0.0276,-0.0233,-0.0174,-0.006,-0.0002,0.0043,0.0061,0.0134,0.0083,0.0079,0.0141,0.0143,0.0145,0.0209,0.0218,0.0104,0.0103,0.0103,0,-0.0591,-0.0574,-0.0538,-0.0517,-0.0495,-0.0439,-0.0421,-0.0383,-0.0304,-0.0277,-0.0261,-0.0136,-0.0064,0.0015,0.0012,0.0051,0.0096,0.0086,0.0133,0.0136,0.014,0.0206,0.0216,0.0099,0.01,0.01,0.01,0,-0.0592,-0.0584,-0.0576,-0.0533,-0.0505,-0.048,-0.0417,-0.0382,-0.0346,-0.0302,-0.0233,-0.0154,-0.0074,-0.0048,-0.0008,0.0054,0.0079,0.0095,0.0138,0.0135,0.0205,0.0218,0.0093,0.0094,0.0096,0.0097,0,0,-0.0635,-0.0589,-0.0588,-0.0584,-0.0514,-0.0495,-0.0443,-0.0383,-0.0356,-0.0284,-0.024,-0.0153,-0.0122,-0.0069,-0.0015,0.0051,0.0106,0.0084,0.0089,0.0133,0.0246,0.0238,0.0251,0.0122,0.0124,0.0125,0.0281,0,-0.0649,-0.0633,-0.0595,-0.0583,-0.0574,-0.0513,-0.0476,-0.0416,-0.0354,-0.0295,-0.0212,-0.0156,-0.0123,-0.0095,-0.0028,0.0073,0.0136,0.0063,0.0257,0.0263,0.0244,0.0265,0.0239,0.0373,0.0294,0.0296,0.0298,0,-0.0655,-0.0651,-0.0645,-0.0625,-0.0616,-0.06,-0.0544,-0.0504,-0.0401,-0.0353,-0.0274,-0.0203,-0.0094,-0.0081,0.0102,0.0051,0.0138,0.0216,0.0224,0.0261,0.0279,0.0368,0.04,0.032,0.0318,0.0316,0.0315,0,-0.0707,-0.0686,-0.0693,-0.0682,-0.0642,-0.0639,-0.0619,-0.0532,-0.0489,-0.0392,-0.0334,-0.0215,-0.0132,-0.0017,0.0137,0.0127,0.0331,0.0342,0.042,0.0421,0.0463,0.0464,0.0459,0.0459,0.0458,0.0458,0.0457,0,-0.073,-0.0739,-0.0731,-0.0737,-0.077,-0.0714,-0.0714,-0.0666,-0.0567,-0.0499,-0.0383,-0.0283,-0.0112,0.0032,0.0143,0.0322,0.034,0.043,0.0464,0.0429,0.0425,0.043,0.0424,0.0464,0.0462,0.0461,0.046,0,-0.0777,-0.0759,-0.0789,-0.0787,-0.0796,-0.0828,-0.0796,-0.0773,-0.0668,-0.0565,-0.0527,-0.0311,-0.0116,0.0046,0.0261,0.0347,0.0499,0.0547,0.0491,0.0514,0.0552,0.054,0.068,0.0681,0.0682,0.0683,0.0683,0,-0.0794,-0.0812,-0.0858,-0.0902,-0.0913,-0.0943,-0.0949,-0.0856,-0.0795,-0.0566,-0.0502,-0.028,-0.0106,0.0192,0.0369,0.0564,0.0547,0.0635,0.0609,0.0558,0.0577,0.0563,0.0551,0.0639,0.0639,0.0639,0.064,0,-0.0849,-0.0871,-0.0911,-0.1005,-0.1046,-0.1065,-0.1045,-0.1003,-0.0841,-0.0702,-0.0464,-0.0303,0.002,0.0253,0.0471,0.0569,0.0598,0.0646,0.0636,0.0563,0.0525,0.0541,0.0529,0.0641,0.0641,0.0641,0.0641,0.0641,-0.0908,-0.0969,-0.1033,-0.1122,-0.1159,-0.1161,-0.1153,-0.1074,-0.0955,-0.0702,-0.0514,-0.0243,0.0001,0.0332,0.0505,0.0662,0.0669,0.0694,0.0691,0.0689,0.0633,0.0596,0.0716,0.0716,0.0717,0.0717,0.0717,0,-0.0977,-0.1044,-0.114,-0.1213,-0.1241,-0.1242,-0.1185,-0.1115,-0.0972,-0.073,-0.0503,-0.0211,0.0048,0.0302,0.058,0.0728,0.0711,0.0723,0.0685,0.0682,0.068,0.0621,0.0703,0.0704,0.0704,0.0704,0,0,-0.1024,-0.1129,-0.1182,-0.1264,-0.1293,-0.1268,-0.1228,-0.1115,-0.0937,-0.0686,-0.0468,-0.0261,0.0078,0.0241,0.044,0.0604,0.0592,0.0596,0.0591,0.0521,0.0517,0.0649,0.0554,0,0,0,0,0]}],[{"header":{"parameterUnit":"m.s-1","parameterCategory":2,"la1":30.2991,"la2":30.254,"lo1":-89.0895,"lo2":-89.0444,"dy":0.0017,"dx":0.0017,"nx":28,"ny":28,"refTime":"2024-07-05T21:00:00:Z","depth":"4","parameterNumber":2,"parameterNumberName":"U-component_of_CURRENTS"},"data":[0,0,0,0,0,0,0,0,0,0,0,0,0,0,0,0,0,0,0,0,0,0,0,0,0,0,0,0,0,0,0,0,0,0,0,0,0,0,0,0,0,0,0,0,0,0,0,0,0,0,0,0,0,0,0,0,0,0,-0.1596,-0.1596,0,-0.1589,-0.1589,-0.1589,-0.1614,-0.1615,-0.1616,-0.1616,-0.166,-0.166,-0.166,0,0,0,0,0,0,0,0,0,0,0,0,0,-0.159,-0.159,-0.1596,-0.1596,-0.1596,-0.1589,-0.1589,-0.1589,-0.1614,-0.1615,-0.1616,-0.1617,-0.1659,-0.166,-0.166,0,0,0,0,0,0,0,0,0,0,0,0,0,-0.1588,-0.1591,-0.1596,-0.1609,-0.161,-0.1589,-0.1589,-0.1589,-0.1613,-0.1615,-0.1616,-0.1617,-0.1659,-0.166,-0.166,-0.1636,0,0,-0.1662,-0.1662,0,0,0,0,0,0,0,0,-0.1588,-0.1588,-0.1607,-0.1608,-0.1609,-0.1605,-0.1603,-0.1608,-0.1613,-0.1611,-0.1617,-0.1618,-0.1646,-0.1648,-0.164,-0.1638,-0.164,-0.1662,-0.1662,-0.1662,-0.1662,0,0,0,0,0,0,0,-0.1588,-0.1588,-0.1592,-0.1607,-0.1609,-0.1601,-0.1603,-0.1603,-0.1621,-0.1611,-0.1613,-0.1614,-0.1647,-0.164,-0.1642,-0.1641,-0.1662,-0.1662,-0.1662,-0.1663,-0.1659,-0.1658,0,0,0,0,0,0,-0.1593,-0.1588,-0.1592,-0.1592,-0.1604,-0.1601,-0.1602,-0.1604,-0.162,-0.1623,-0.1613,-0.1616,-0.1638,-0.1641,-0.1644,-0.1699,-0.1662,-0.1663,-0.1663,-0.1659,-0.1659,-0.1658,0,0,0,0,0,0,-0.1593,-0.1593,-0.1592,-0.1591,-0.1591,-0.16,-0.1601,-0.1603,-0.163,-0.1621,-0.1626,-0.1643,-0.164,-0.1643,-0.1658,-0.1698,-0.1663,-0.1663,-0.166,-0.1659,-0.1658,-0.1756,0,0,0,0,0,0,-0.1592,-0.1593,-0.1609,-0.1591,-0.1591,-0.1602,-0.16,-0.1602,-0.1627,-0.1631,-0.1647,-0.165,-0.1641,-0.1657,-0.1658,-0.1698,-0.1664,-0.166,-0.1659,-0.1659,-0.1754,-0.1759,-0.1764,0,0,0,0,0,-0.1592,-0.1602,-0.161,-0.1611,-0.1609,-0.1603,-0.1602,-0.1611,-0.1628,-0.1641,-0.1643,-0.1652,-0.1653,-0.1657,-0.1659,-0.17,-0.166,-0.166,-0.1659,-0.1751,-0.1758,-0.1764,0,0,0,0,0,0,-0.161,-0.1605,-0.1613,-0.1623,-0.1626,-0.1608,-0.1622,-0.163,-0.1641,-0.1656,-0.165,-0.1652,-0.1681,-0.1661,-0.1666,-0.1688,-0.1657,-0.1656,-0.1727,-0.1733,-0.1738,-0.1742,-0.1664,0,0,0,0,0,-0.162,-0.1629,-0.1622,-0.1635,-0.1639,-0.1638,-0.1644,-0.1652,-0.1652,-0.166,-0.1666,-0.1666,-0.167,-0.1681,-0.1674,-0.169,-0.1661,-0.1711,-0.1716,-0.1721,-0.172,-0.17,-0.1704,-0.1655,-0.1655,-0.1655,0,0,-0.163,-0.163,-0.1637,-0.164,-0.1643,-0.1654,-0.1646,-0.1663,-0.1684,-0.1662,-0.1697,-0.1691,-0.1675,-0.1693,-0.1704,-0.1691,-0.1719,-0.172,-0.1725,-0.1721,-0.1699,-0.1704,-0.1709,-0.1655,-0.1655,-0.1655,0,0,-0.1641,-0.1657,-0.1664,-0.1671,-0.1684,-0.1685,-0.17,-0.17,-0.1718,-0.1738,-0.1729,-0.1743,-0.1746,-0.1743,-0.1742,-0.1766,-0.1747,-0.1767,-0.1807,-0.1789,-0.1793,-0.1797,-0.1774,-0.1774,-0.1772,-0.1772,-0.1772,0,-0.1659,-0.1665,-0.1667,-0.1677,-0.169,-0.1706,-0.1721,-0.1737,-0.1746,-0.1758,-0.1764,-0.1768,-0.177,-0.1788,-0.1798,-0.1786,-0.1761,-0.1797,-0.1799,-0.1802,-0.1804,-0.1779,-0.1779,-0.1776,-0.1776,-0.1775,-0.1775,0,-0.1661,-0.1684,-0.1692,-0.1712,-0.1727,-0.1745,-0.1765,-0.1792,-0.1819,-0.1826,-0.1856,-0.1847,-0.1842,-0.1855,-0.1843,-0.186,-0.1834,-0.1813,-0.1795,-0.1816,-0.1787,-0.1785,-0.1783,-0.1781,-0.178,-0.1779,0,0,-0.165,-0.1687,-0.1693,-0.1713,-0.1751,-0.1757,-0.1807,-0.1836,-0.186,-0.1889,-0.1903,-0.1934,-0.1925,-0.1919,-0.1908,-0.1906,-0.1915,-0.1873,-0.187,-0.1869,-0.1868,-0.1738,-0.1723,-0.1897,-0.1897,-0.1897,-0.1845,0,-0.1655,-0.1682,-0.1701,-0.1742,-0.1759,-0.1797,-0.1833,-0.1868,-0.1894,-0.1908,-0.1929,-0.1935,-0.195,-0.1947,-0.1953,-0.1912,-0.1912,-0.193,-0.1828,-0.1825,-0.1724,-0.1717,-0.1897,-0.1843,-0.1843,-0.1842,-0.1842,0,-0.164,-0.1666,-0.1703,-0.1756,-0.1767,-0.1797,-0.1849,-0.188,-0.1915,-0.1933,-0.1956,-0.195,-0.1964,-0.1958,-0.1938,-0.1947,-0.1918,-0.1894,-0.1891,-0.1732,-0.1691,-0.1811,-0.1838,-0.1838,-0.1838,-0.1839,-0.1839,0,-0.1607,-0.1663,-0.1695,-0.1714,-0.1775,-0.1807,-0.1842,-0.1888,-0.1911,-0.1936,-0.1943,-0.1957,-0.1948,-0.1933,-0.1905,-0.1915,-0.1859,-0.1857,-0.1719,-0.171,-0.1805,-0.1801,-0.1836,-0.1837,-0.1837,-0.1837,-0.1837,0,-0.1582,-0.1613,-0.1687,-0.1703,-0.1745,-0.1792,-0.1829,-0.1866,-0.1903,-0.1899,-0.1945,-0.1929,-0.194,-0.1912,-0.1892,-0.179,-0.1849,-0.1715,-0.1682,-0.1845,-0.1847,-0.1804,-0.1801,-0.1835,-0.1835,-0.1836,-0.1836,0,-0.1526,-0.1579,-0.1622,-0.1702,-0.1727,-0.1753,-0.1823,-0.1829,-0.1889,-0.1877,-0.1883,-0.1905,-0.1848,-0.1848,-0.1795,-0.1746,-0.1678,-0.1632,-0.1804,-0.1783,-0.1548,-0.1551,-0.1458,-0.1453,-0.1449,-0.1445,-0.1442,0,-0.1495,-0.1512,-0.1606,-0.1623,-0.166,-0.1711,-0.1728,-0.1808,-0.1795,-0.1839,-0.1798,-0.1786,-0.1775,-0.161,-0.163,-0.156,-0.1549,-0.1517,-0.154,-0.153,-0.1507,-0.1517,-0.1525,-0.1435,-0.1434,-0.1433,-0.1432,0,-0.1433,-0.1478,-0.1509,-0.1539,-0.1569,-0.1591,-0.1614,-0.1608,-0.1656,-0.1745,-0.1661,-0.1622,-0.1546,-0.1499,-0.1449,-0.1414,-0.1537,-0.1471,-0.148,-0.1502,-0.1501,-0.1485,-0.1498,-0.1417,-0.1419,-0.142,-0.1421,0,-0.1387,-0.1386,-0.1416,-0.142,-0.1452,-0.1413,-0.1469,-0.1435,-0.1451,-0.1507,-0.1475,-0.1474,-0.1513,-0.1421,-0.1382,-0.1321,-0.1303,-0.1277,-0.1296,-0.1313,-0.1288,-0.1267,-0.1069,0,0,0,0,0,-0.1327,-0.1285,-0.1282,-0.1261,-0.128,-0.128,-0.1341,-0.1392,-0.1462,-0.1358,-0.1413,-0.1338,-0.1267,-0.1284,-0.1184,-0.1299,-0.1302,-0.1179,-0.1282,-0.1333,-0.135,-0.1334,0,0,0,0,0,0,-0.1276,-0.1272,-0.1231,-0.11,-0.1049,-0.1038,-0.1071,-0.1136,-0.1089,-0.1187,-0.1154,-0.124,-0.1188,-0.1274,-0.1142,-0.1144,-0.1181,-0.1201,-0.1197,-0.1323,-0.1339,-0.1353,-0.1342,0,0,0,0,0]},{"header":{"parameterUnit":"m.s-1","parameterCategory":2,"la1":30.2991,"la2":30.254,"lo1":-89.0895,"lo2":-89.0444,"dy":0.0017,"dx":0.0017,"nx":28,"ny":28,"refTime":"2024-07-05T21:00:00:Z","depth":"4","parameterNumber":3,"parameterNumberName":"V-component_of_CURRENTS"},"data":[0,0,0,0,0,0,0,0,0,0,0,0,0,0,0,0,0,0,0,0,0,0,0,0,0,0,0,0,0,0,0,0,0,0,0,0,0,0,0,0,0,0,0,0,0,0,0,0,0,0,0,0,0,0,0,0,0,0,-0.0319,-0.0319,0,-0.0292,-0.0291,-0.0291,-0.0274,-0.0274,-0.0274,-0.0274,-0.0219,-0.0217,-0.0216,0,0,0,0,0,0,0,0,0,0,0,0,0,-0.0346,-0.0346,-0.0319,-0.0319,-0.0318,-0.0292,-0.0291,-0.0291,-0.0274,-0.0274,-0.0274,-0.0274,-0.0219,-0.0218,-0.0216,0,0,0,0,0,0,0,0,0,0,0,0,0,-0.0329,-0.0346,-0.0319,-0.0306,-0.0305,-0.0292,-0.0291,-0.0291,-0.0274,-0.0274,-0.0274,-0.0273,-0.022,-0.0218,-0.0216,-0.0208,0,0,-0.021,-0.0209,0,0,0,0,0,0,0,0,-0.033,-0.0328,-0.0308,-0.0307,-0.0305,-0.0286,-0.0281,-0.0262,-0.0274,-0.0286,-0.0274,-0.0273,-0.0238,-0.0235,-0.0231,-0.0205,-0.0203,-0.021,-0.0208,-0.0207,-0.0207,0,0,0,0,0,0,0,-0.0331,-0.0329,-0.0309,-0.0308,-0.0306,-0.0298,-0.0296,-0.0277,-0.0264,-0.0285,-0.0284,-0.028,-0.0237,-0.0233,-0.023,-0.0202,-0.021,-0.0208,-0.0207,-0.0206,-0.0149,-0.0149,0,0,0,0,0,0,-0.0334,-0.033,-0.031,-0.0308,-0.0317,-0.0298,-0.0295,-0.0293,-0.0264,-0.026,-0.028,-0.0279,-0.0237,-0.0232,-0.0228,-0.0177,-0.0208,-0.0206,-0.0204,-0.015,-0.0149,-0.0149,0,0,0,0,0,0,-0.0335,-0.0333,-0.0311,-0.0318,-0.0314,-0.0298,-0.0295,-0.0292,-0.0291,-0.0261,-0.0256,-0.0283,-0.0236,-0.0231,-0.0207,-0.0176,-0.0205,-0.0203,-0.015,-0.0149,-0.0149,-0.01,0,0,0,0,0,0,-0.0336,-0.0333,-0.0342,-0.0318,-0.0314,-0.0301,-0.0295,-0.0292,-0.0289,-0.0288,-0.0261,-0.0256,-0.0236,-0.0211,-0.0206,-0.0174,-0.0201,-0.015,-0.015,-0.0149,-0.0102,-0.0097,-0.0094,0,0,0,0,0,-0.0337,-0.0343,-0.0343,-0.0341,-0.0324,-0.03,-0.0298,-0.0285,-0.0289,-0.0286,-0.0267,-0.0257,-0.0203,-0.0209,-0.0203,-0.0169,-0.0151,-0.015,-0.0149,-0.0103,-0.0098,-0.0094,0,0,0,0,0,0,-0.0362,-0.0341,-0.034,-0.0341,-0.0323,-0.0297,-0.0298,-0.0291,-0.0276,-0.0277,-0.0253,-0.0245,-0.0211,-0.0208,-0.0215,-0.0155,-0.0175,-0.0173,-0.0142,-0.0138,-0.0134,-0.0136,-0.02,0,0,0,0,0,-0.0372,-0.0372,-0.0347,-0.0351,-0.0341,-0.0324,-0.0318,-0.0306,-0.0286,-0.028,-0.0258,-0.0236,-0.0204,-0.0187,-0.0165,-0.0135,-0.0123,-0.0113,-0.0109,-0.0106,-0.0106,-0.0049,-0.0039,-0.0147,-0.0147,-0.0147,0,0,-0.0387,-0.0374,-0.0377,-0.0357,-0.0344,-0.032,-0.0319,-0.0307,-0.0283,-0.0275,-0.0243,-0.0224,-0.0196,-0.0154,-0.0138,-0.0146,-0.0072,-0.0105,-0.0102,-0.0104,-0.0047,-0.0036,-0.0027,-0.0146,-0.0146,-0.0146,0,0,-0.0397,-0.04,-0.0394,-0.0375,-0.0351,-0.0332,-0.0329,-0.0301,-0.0285,-0.0256,-0.0235,-0.0196,-0.0167,-0.0121,-0.0098,-0.0066,-0.0056,-0.0068,-0.0041,0.0015,0.0024,0.0033,0.0053,0.0063,-0.0062,-0.0062,-0.0062,0,-0.0417,-0.0402,-0.039,-0.0368,-0.0352,-0.0335,-0.0314,-0.029,-0.0257,-0.0237,-0.0243,-0.017,-0.0142,-0.0069,-0.0054,-0.0051,-0.004,-0.0055,0.0022,0.0031,0.004,0.0058,0.0069,-0.006,-0.006,-0.006,-0.006,0,-0.0404,-0.0397,-0.039,-0.0355,-0.0336,-0.0318,-0.0277,-0.0258,-0.0243,-0.0213,-0.0156,-0.0114,-0.0072,-0.0048,-0.0038,0.0038,0.0018,0.0022,0.0017,0.0054,0.007,0.008,-0.0056,-0.0057,-0.0058,-0.0058,0,0,-0.0438,-0.0391,-0.0391,-0.038,-0.0328,-0.0317,-0.0267,-0.022,-0.0199,-0.0151,-0.0112,-0.0033,-0.0022,0.0003,0.0031,0.0087,0.0161,0.0075,0.0077,0.0104,0.0256,0.0218,0.0225,0.0178,0.018,0.0182,0.024,0,-0.0433,-0.0404,-0.0372,-0.0346,-0.033,-0.0291,-0.0252,-0.0208,-0.0172,-0.0131,-0.0062,-0.0023,0.0003,0.0017,0.0085,0.0131,0.019,0.0142,0.0206,0.0207,0.0179,0.0238,0.0189,0.0248,0.0251,0.0252,0.0253,0,-0.0424,-0.0411,-0.0388,-0.0352,-0.0341,-0.0324,-0.0277,-0.0239,-0.0162,-0.0133,-0.0066,-0.0028,0.0062,0.0068,0.0196,0.0159,0.0211,0.0254,0.0257,0.0212,0.019,0.0204,0.0272,0.0271,0.0269,0.0268,0.0267,0,-0.046,-0.0421,-0.0413,-0.0398,-0.035,-0.0341,-0.0318,-0.0251,-0.0226,-0.0145,-0.0126,-0.0013,0.0024,0.0123,0.0206,0.0203,0.033,0.0338,0.0361,0.0357,0.0351,0.0341,0.0444,0.0444,0.0444,0.0444,0.0444,0,-0.046,-0.0458,-0.0442,-0.044,-0.0453,-0.0393,-0.0389,-0.0345,-0.0277,-0.0249,-0.0147,-0.0101,0.004,0.0124,0.0208,0.0305,0.0337,0.0376,0.0383,0.0366,0.0357,0.0357,0.0347,0.0446,0.0446,0.0445,0.0445,0,-0.0495,-0.0473,-0.0486,-0.0469,-0.0474,-0.0493,-0.0469,-0.0456,-0.0378,-0.034,-0.0318,-0.0168,-0.0048,0.0079,0.0234,0.0292,0.0395,0.0423,0.0371,0.0372,0.0384,0.0375,0.0466,0.0465,0.0465,0.0464,0.0464,0,-0.0502,-0.0511,-0.0548,-0.0588,-0.0592,-0.0608,-0.0617,-0.0536,-0.0509,-0.0382,-0.0364,-0.0228,-0.0128,0.0057,0.0205,0.0367,0.0391,0.0429,0.0443,0.0395,0.0393,0.0384,0.0376,0.0463,0.0463,0.0463,0.0463,0,-0.0538,-0.0567,-0.0592,-0.0681,-0.0722,-0.0741,-0.0736,-0.0718,-0.0607,-0.0541,-0.0408,-0.0273,-0.0131,0.0046,0.0166,0.0288,0.0398,0.0425,0.0427,0.0441,0.0393,0.0389,0.0382,0.0461,0.0461,0.0462,0.0462,0,-0.059,-0.064,-0.0698,-0.0771,-0.0829,-0.0848,-0.0832,-0.0771,-0.0717,-0.0551,-0.0512,-0.0319,-0.0189,0.0005,0.012,0.0231,0.0271,0.0294,0.0304,0.0308,0.0247,0.0162,0.0178,0,0,0,0,0,-0.0634,-0.0696,-0.0778,-0.0849,-0.0903,-0.0923,-0.0895,-0.0849,-0.0741,-0.0669,-0.0579,-0.0439,-0.0209,-0.0084,0.002,0.0104,0.0273,0.0227,0.0299,0.0452,0.0454,0.0408,0,0,0,0,0,0,-0.0672,-0.0754,-0.0792,-0.0889,-0.0944,-0.0979,-0.096,-0.0887,-0.0816,-0.0698,-0.0572,-0.045,-0.0226,-0.0289,0.0005,0.005,0.0103,0.0357,0.0358,0.0451,0.0453,0.0454,0.0407,0,0,0,0,0]}]]